Fort Lewis, WA

6:22 AM PDT on August 22, 2017 (GMT -0700)
Gray Army Air Field

Weather History for KGRF - April, 2013

Change the Weather History Date:

Wednesday, April 24, 2013

  Actual Average Record
Temperature  
Mean Temperature 51 °F -  
Max Temperature 69 °F 60 °F 75 °F (1999)
Min Temperature 34 °F 39 °F 32 °F (2002)
Degree Days  
Heating Degree Days 14    
Growing Degree Days 1 (Base 50)    
Moisture  
Dew Point 33 °F    
Average Humidity 53    
Maximum Humidity 91    
Minimum Humidity 19    
Precipitation  
Precipitation 0.00 in - - ()
Sea Level Pressure  
Sea Level Pressure 30.23 in    
Wind  
Wind Speed 5 mph (NNE)    
Max Wind Speed 10 mph    
Max Gust Speed -    
Visibility 10 miles    
Events      
Averages and records for this station are not official NWS values.
T = Trace of Precipitation, MM = Missing Value Source: NWS Daily Summary

Daily Weather History Graph

Daily Weather History Graph

Search for Another Location

Airport or City:

Trip Planner

Search our weather history database for the weather conditions in past years. The results will help you decide how hot, cold, wet, or windy it might be!

Date:

Astronomy

Apr. 24, 2013 Rise Set
Actual Time 6:05 AM PDT 8:12 PM PDT
Civil Twilight 5:32 AM PDT 8:45 PM PDT
Nautical Twilight 4:51 AM PDT 9:26 PM PDT
Astronomical Twilight 4:06 AM PDT 10:12 PM PDT
Moon 7:20 PM PDT (4/24) 5:16 AM PDT (4/24)
Length of Visible Light 15h 12m
Length of Day
14h 06m
Waxing Gibbous, 98% of the Moon is Illuminated
Apr 24
Waxing Gibbous
Apr 25
Full
May 2
Last Quarter
May 9
New
May 17
First Quarter

Hourly Weather History & Observations

Time (PDT) Temp. Windchill Dew Point Humidity Pressure Visibility Wind Dir Wind Speed Gust Speed Precip Events Conditions
12:58 AM 41.2 °F - 34.0 °F 76% 30.32 in 10.0 mi ESE 2.3 mph - N/A   Clear
1:58 AM 38.1 °F 32.3 °F 32.4 °F 80% 30.33 in 10.0 mi SE 8.1 mph - N/A   Clear
2:58 AM 36.0 °F 31.1 °F 32.5 °F 87% 30.33 in 10.0 mi SE 5.8 mph - N/A   Clear
3:58 AM 34.2 °F 30.0 °F 31.3 °F 89% 30.33 in 10.0 mi SE 4.6 mph - N/A   Clear
4:58 AM 35.4 °F - 31.5 °F 85% 30.34 in 10.0 mi ENE 1.2 mph - N/A   Clear
5:58 AM 35.2 °F - 31.8 °F 87% 30.33 in 10.0 mi SE 2.3 mph - N/A   Clear
6:58 AM 35.1 °F - 32.7 °F 91% 30.33 in 10.0 mi Variable 2.3 mph - N/A   Clear
7:58 AM 42.4 °F - 34.7 °F 74% 30.33 in 10.0 mi NNW 1.2 mph - N/A   Clear
8:58 AM 48.4 °F - 35.8 °F 62% 30.33 in 10.0 mi Variable 1.2 mph - N/A   Clear
9:58 AM 53.2 °F - 37.0 °F 54% 30.31 in 10.0 mi Variable 2.3 mph - N/A   Clear
10:58 AM 59.2 °F - 37.0 °F 44% 30.30 in 10.0 mi NE 6.9 mph - N/A   Clear
11:58 AM 62.6 °F - 36.1 °F 37% 30.27 in 10.0 mi Variable 5.8 mph - N/A   Clear
12:58 PM 64.6 °F - 34.2 °F 32% 30.26 in 10.0 mi North 10.4 mph - N/A   Clear
1:58 PM 67.3 °F - 31.5 °F 26% 30.22 in 10.0 mi NNW 10.4 mph - N/A   Clear
2:58 PM 68.4 °F - 29.7 °F 24% 30.21 in 10.0 mi NW 9.2 mph - N/A   Clear
3:58 PM 68.7 °F - 25.0 °F 19% 30.18 in 10.0 mi NNE 9.2 mph - N/A   Clear
4:58 PM 68.0 °F - 27.5 °F 22% 30.14 in 10.0 mi NNW 6.9 mph - N/A   Clear
5:58 PM 67.6 °F - 30.2 °F 25% 30.12 in 10.0 mi NNW 6.9 mph - N/A   Clear
6:58 PM 66.9 °F - 31.8 °F 27% 30.11 in 10.0 mi North 5.8 mph - N/A   Clear
7:58 PM 64.2 °F - 30.7 °F 29% 30.09 in 10.0 mi North 5.8 mph - N/A   Clear
8:58 PM 60.3 °F - 32.9 °F 36% 30.09 in 10.0 mi WNW 2.3 mph - N/A   Clear
9:58 PM 56.1 °F - 36.0 °F 47% 30.09 in 10.0 mi Variable 2.3 mph - N/A   Clear
10:58 PM 52.0 °F - 36.7 °F 56% 30.07 in 10.0 mi SE 2.3 mph - N/A   Clear
11:58 PM 49.3 °F - 36.1 °F 61% 30.07 in 10.0 mi Variable 2.3 mph - N/A   Clear